Temp
26 25 24 24 23 22 22 21 21 21 21 21 21 21 21 21 21 21 21 21 21 22 22 23 24 24 24 21 19 18 19 19 19 19 19 18 18 17 18 17 17 16 16
26 25 23 23 22 22 22 21 21 21 20 20 20 20 21 21 21 21 20 20 20 20 20 21 23 26 25 23 21 20 18 19 18 18 18 18 18 17 17 17 17 16 16
24 23 22 21 21 22 21 21 21 21 21 21 21 21 21 21 20 19 19 19 20 21 21 21 23 25 27 21 21 18 18 19 18 18 18 18 18 18 17 17 16 16 16
22 20 20 20 20 21 21 20 20 20 21 21 19 18 18 18 18 19 19 20 20 20 20 21 22 23 25 25 20 19 18 19 18 18 18 18 18 18 17 17 17 17 16
20 19 16 16 16 17 17 18 19 19 18 18 18 18 18 19 19 18 19 19 19 19 19 20 21 20 20 19 20 21 20 20 19 18 18 17 19 19 19 18 17 17 16
17 18 18 18 19 17 17 16 19 17 16 17 18 19 19 19 19 18 18 20 19 19 20 20 20 20 20 21 20 20 20 21 20 19 19 18 19 19 18 18 17 16 15
16 17 17 18 19 18 15 16 16 15 16 16 17 17 18 17 17 18 19 19 19 19 19 19 19 19 19 20 20 21 20 20 19 19 19 19 17 17 18 18 17 16 17
15 15 16 15 15 16 14 13 14 15 16 17 17 17 17 17 17 18 18 17 17 17 18 17 18 18 19 19 20 21 20 20 19 18 17 18 17 17 18 17 17 16 16
14 14 14 15 16 15 14 15 16 16 15 16 16 16 15 16 16 16 16 16 16 16 16 16 16 16 16 17 17 18 18 18 17 17 17 17 18 18 17 17 16 16 16
14 15 16 17 16 15 14 15 15 15 15 15 15 15 15 15 14 13 13 14 14 14 15 14 14 15 15 15 16 16 16 17 17 17 17 17 17 17 17 17 17 17 16
15 15 16 16 15 14 14 14 15 14 14 14 14 14 14 14 14 14 13 13 13 13 13 13 14 14 14 14 15 14 15 15 15 16 17 16 16 15 15 16 16 16 15
15 14 14 14 13 13 13 13 13 13 13 13 12 12 12 12 12 12 12 11 11 11 12 12 13 13 13 13 14 14 14 14 14 15 15 15 15 15 15 15 15 15 15
13 13 12 12 11 11 11 11 12 12 12 12 11 11 12 11 11 11 11 11 10 10 11 11 11 12 12 13 13 13 13 14 14 14 14 15 15 15 15 16 16 15 14
12 12 12 12 11 11 10 11 11 10 11 11 11 11 11 11 11 10 10 10 10 10 11 11 11 11 11 12 12 13 13 13 13 13 14 14 14 14 15 15 16 15 13
13 12 11 11 11 11 11 11 10 9 9 9 9 8 8 9 10 9 9 9 9 10 10 10 11 11 11 11 12 12 12 13 13 13 13 13 14 14 14 14 15 15 13
12 11 11 11 11 11 10 11 10 10 9 9 8 8 8 8 8 8 8 9 9 9 9 10 10 10 10 10 11 11 12 12 13 13 13 12 12 13 13 13 13 14 13
11 10 10 10 10 9 9 8 8 10 8 9 9 9 9 9 9 9 8 9 9 9 9 9 9 9 10 10 10 10 11 12 12 12 12 12 12 12 13 12 12 13 13
9 9 9 8 8 8 7 7 7 7 7 8 9 9 9 9 9 9 9 9 9 9 9 8 8 9 9 9 10 10 10 10 11 11 11 11 11 12 12 12 12 12 12
9 9 8 8 8 8 8 8 8 8 8 8 9 9 9 9 9 9 8 7 7 6 6 6 6 7 7 7 7 8 8 9 10 10 10 11 11 11 12 12 12 12 12
9 9 9 8 8 8 8 8 8 8 8 8 8 8 8 8 8 8 8 6 5 5 5 5 5 6 6 7 7 7 7 8 9 9 10 10 10 11 11 12 12 12 12
10 9 9 9 8 8 8 8 8 8 8 8 8 8 7 6 6 7 6 6 6 5 5 5 5 6 6 7 7 7 7 8 9 9 9 10 10 11 11 12 12 12 12
10 10 9 9 9 9 9 9 8 8 8 8 7 7 7 6 6 6 5 6 6 5 5 5 5 5 6 6 7 7 7 8 8 8 9 9 9 10 11 11 12 12 12
10 10 10 9 9 9 9 9 9 8 8 7 7 6 6 5 5 5 5 5 5 5 5 5 4 5 5 6 7 7 7 8 8 8 8 8 9 9 10 10 11 11 11
10 10 10 10 9 9 9 9 9 8 8 7 7 7 5 5 5 5 5 5 5 5 5 5 5 5 5 6 6 7 7 7 8 8 8 9 8 9 9 10 11 11 12
10 10 9 10 9 9 9 9 9 8 8 7 6 6 5 4 4 4 4 4 5 5 5 4 5 5 6 6 6 6 6 7 7 7 8 8 9 9 9 10 11 11 11
9 9 9 9 9 9 9 9 9 8 7 7 5 4 4 4 4 4 4 4 4 5 4 5 5 5 5 5 6 6 6 6 6 7 7 7 7 8 8 10 10 10 11
Height
1523 1526 1529 1534 1537 1539 1541 1543 1545 1547 1548 1549 1551 1553 1552 1552 1551 1552 1550 1549 1547 1547 1545 1544 1542 1541 1543 1549 1548 1550 1548 1547 1544 1542 1542 1539 1536 1537 1536 1534 1531 1529 1528
1519 1523 1526 1530 1534 1536 1537 1541 1543 1543 1545 1546 1548 1550 1549 1549 1546 1548 1547 1546 1546 1547 1547 1543 1539 1533 1540 1541 1541 1543 1542 1541 1540 1538 1537 1536 1533 1530 1531 1530 1528 1526 1523
1515 1520 1522 1527 1529 1531 1535 1535 1538 1540 1540 1541 1542 1543 1543 1542 1541 1543 1542 1541 1542 1541 1540 1541 1539 1532 1520 1517 1535 1537 1536 1536 1535 1533 1532 1531 1530 1528 1526 1526 1524 1522 1521
1511 1516 1519 1524 1525 1527 1531 1533 1536 1536 1538 1536 1536 1538 1538 1540 1541 1540 1539 1538 1536 1535 1534 1533 1532 1530 1523 1518 1527 1528 1529 1529 1530 1528 1526 1524 1523 1522 1522 1521 1519 1517 1517
1505 1509 1514 1521 1525 1524 1528 1530 1532 1532 1533 1531 1536 1537 1537 1537 1537 1538 1536 1535 1534 1533 1530 1527 1525 1524 1522 1521 1521 1521 1522 1523 1522 1520 1518 1516 1514 1515 1515 1516 1513 1512 1511
1503 1504 1506 1513 1521 1528 1526 1532 1525 1527 1531 1533 1534 1533 1532 1534 1533 1532 1531 1528 1527 1528 1526 1524 1523 1521 1519 1519 1518 1517 1518 1515 1514 1513 1511 1509 1508 1508 1510 1509 1507 1505 1504
1512 1504 1507 1513 1512 1520 1525 1523 1526 1530 1533 1533 1530 1528 1526 1528 1528 1526 1524 1523 1522 1521 1519 1517 1516 1517 1516 1514 1512 1511 1511 1510 1508 1505 1503 1503 1503 1502 1503 1502 1499 1498 1497
1514 1512 1508 1509 1504 1506 1522 1531 1533 1531 1532 1530 1527 1525 1525 1524 1522 1519 1519 1518 1516 1515 1512 1511 1510 1509 1511 1509 1506 1504 1504 1503 1501 1500 1499 1497 1496 1495 1493 1494 1492 1492 1491
1519 1516 1515 1511 1502 1516 1525 1527 1528 1529 1529 1525 1523 1522 1519 1516 1514 1514 1514 1513 1510 1509 1509 1507 1506 1504 1503 1504 1501 1498 1497 1496 1497 1494 1493 1490 1487 1486 1485 1485 1484 1484 1483
1523 1518 1507 1503 1513 1524 1527 1524 1523 1524 1524 1519 1518 1516 1511 1509 1510 1508 1509 1507 1506 1503 1503 1501 1500 1497 1494 1496 1495 1492 1491 1491 1490 1488 1486 1482 1478 1476 1477 1478 1477 1477 1477
1515 1511 1507 1510 1518 1521 1521 1520 1519 1518 1515 1515 1513 1508 1505 1504 1505 1505 1504 1501 1497 1495 1495 1492 1492 1491 1488 1488 1488 1485 1484 1483 1481 1480 1477 1474 1472 1470 1470 1471 1471 1469 1470
1508 1509 1509 1513 1517 1518 1517 1515 1515 1513 1511 1510 1507 1504 1503 1502 1501 1499 1495 1494 1489 1487 1488 1483 1483 1480 1479 1481 1481 1479 1476 1476 1475 1474 1472 1471 1470 1468 1466 1464 1463 1462 1463
1508 1509 1511 1511 1512 1514 1513 1512 1512 1510 1507 1504 1502 1500 1499 1496 1493 1491 1489 1485 1486 1483 1482 1476 1474 1470 1469 1473 1474 1472 1470 1468 1468 1467 1467 1465 1465 1464 1462 1460 1457 1456 1456
1506 1508 1508 1508 1508 1507 1507 1505 1504 1503 1500 1498 1495 1492 1489 1490 1485 1483 1481 1481 1480 1478 1471 1472 1470 1464 1465 1468 1467 1465 1463 1461 1460 1459 1459 1458 1457 1456 1455 1453 1451 1449 1450
1503 1503 1503 1502 1501 1499 1498 1497 1495 1493 1492 1490 1488 1486 1482 1480 1478 1476 1473 1473 1473 1468 1466 1465 1461 1460 1460 1461 1459 1457 1456 1454 1452 1451 1450 1449 1449 1448 1447 1446 1445 1444 1443
1499 1498 1498 1496 1493 1492 1491 1489 1486 1485 1486 1484 1482 1478 1475 1473 1473 1471 1469 1467 1464 1460 1457 1455 1454 1455 1453 1451 1449 1447 1446 1446 1445 1443 1442 1441 1441 1440 1439 1439 1439 1438 1437
1496 1496 1494 1491 1490 1487 1483 1482 1479 1479 1479 1478 1476 1472 1470 1468 1465 1464 1462 1459 1457 1453 1449 1448 1446 1446 1443 1441 1439 1438 1437 1437 1436 1435 1433 1434 1434 1433 1433 1431 1430 1430 1430
1494 1492 1490 1488 1487 1485 1483 1482 1480 1477 1473 1470 1471 1468 1465 1463 1459 1459 1455 1450 1448 1446 1443 1442 1438 1436 1434 1432 1431 1429 1428 1428 1427 1427 1427 1426 1426 1425 1425 1424 1424 1424 1424
1492 1490 1489 1488 1485 1483 1481 1478 1476 1474 1470 1466 1463 1462 1461 1457 1457 1453 1449 1445 1442 1439 1437 1434 1432 1429 1426 1425 1423 1421 1420 1420 1420 1419 1418 1418 1418 1418 1417 1417 1417 1417 1417
1490 1488 1486 1485 1483 1480 1478 1477 1473 1471 1468 1465 1463 1459 1457 1455 1451 1444 1442 1440 1437 1435 1432 1428 1426 1422 1421 1418 1415 1413 1412 1411 1411 1411 1410 1409 1410 1410 1410 1410 1410 1410 1410
1489 1487 1485 1485 1483 1481 1479 1479 1474 1471 1466 1462 1461 1458 1455 1450 1446 1441 1437 1436 1433 1428 1425 1422 1418 1415 1414 1412 1409 1407 1405 1403 1403 1403 1402 1402 1401 1401 1402 1402 1402 1402 1403
1487 1485 1484 1482 1480 1479 1477 1473 1469 1467 1464 1459 1456 1454 1449 1444 1441 1436 1432 1428 1425 1421 1417 1414 1411 1408 1407 1405 1404 1402 1399 1397 1396 1395 1395 1394 1394 1394 1394 1394 1394 1394 1395
1484 1482 1481 1479 1477 1475 1473 1470 1467 1464 1462 1458 1453 1448 1443 1439 1434 1429 1426 1422 1418 1412 1408 1405 1402 1401 1399 1397 1396 1395 1393 1390 1389 1388 1387 1386 1386 1387 1387 1387 1387 1386 1387
1480 1478 1477 1476 1473 1472 1470 1468 1465 1462 1457 1453 1448 1443 1437 1432 1427 1424 1420 1416 1412 1407 1401 1398 1396 1393 1391 1389 1388 1386 1384 1381 1380 1379 1378 1378 1377 1378 1379 1380 1379 1379 1380
1472 1471 1471 1471 1469 1467 1465 1463 1459 1456 1452 1448 1444 1438 1432 1426 1422 1419 1415 1412 1408 1403 1399 1395 1392 1390 1387 1384 1382 1379 1376 1373 1371 1369 1368 1368 1368 1368 1369 1370 1370 1371 1372
1466 1465 1465 1465 1464 1463 1460 1457 1454 1451 1449 1445 1440 1434 1428 1423 1418 1414 1411 1407 1404 1400 1396 1392 1389 1386 1384 1381 1378 1374 1370 1367 1364 1362 1360 1359 1358 1358 1359 1359 1360 1361 1363
Wind_Speed
23 26 24 23 22 21 20 21 20 21 20 19 18 19 19 17 18 19 22 22 21 20 20 17 17 20 20 28 22 26 25 25 29 30 27 24 21 18 17 16 15 12 10
28 30 26 26 24 21 20 18 17 17 18 17 18 18 18 20 19 17 18 17 16 16 19 22 19 16 25 49 34 26 24 23 25 28 27 27 27 21 19 19 16 14 11
29 29 22 22 19 20 19 16 14 15 16 18 20 20 20 17 14 8 7 11 15 20 21 18 23 24 33 20 37 26 22 23 24 26 26 27 29 26 23 21 19 17 14
21 15 11 14 14 19 17 13 11 12 15 17 17 11 11 11 12 13 13 14 14 11 11 15 16 18 13 20 25 23 25 24 26 27 28 29 30 28 27 25 23 20 17
16 19 26 25 13 9 10 2 4 10 13 11 10 8 9 13 16 15 16 14 13 14 14 15 16 18 18 21 25 23 25 29 29 27 29 31 31 32 32 27 24 23 21
24 25 18 13 16 25 10 9 8 19 19 16 20 20 17 16 17 18 17 17 16 15 15 15 15 15 16 19 23 26 29 30 31 30 32 34 34 32 30 25 25 24 25
11 7 3 4 7 7 16 23 30 23 21 18 16 15 16 17 17 18 20 20 20 19 19 19 20 22 24 27 29 31 32 31 32 32 33 34 33 27 25 24 25 26 27
4 5 9 8 9 8 22 31 27 27 27 23 17 16 17 17 17 19 19 19 18 18 19 18 19 20 22 24 28 31 31 30 28 26 25 27 29 30 28 27 29 22 23
10 10 11 12 15 5 9 12 14 16 16 15 14 13 13 13 15 16 16 17 17 16 16 16 17 17 17 21 24 25 25 24 22 23 26 27 28 27 28 30 27 22 23
9 6 7 8 2 5 8 9 11 14 15 14 13 14 14 13 13 14 15 16 17 18 18 17 16 16 15 17 20 22 24 23 24 24 26 26 26 25 25 29 26 25 24
4 4 5 2 5 8 10 11 12 14 14 15 16 15 16 17 18 18 18 20 22 23 23 21 19 17 16 17 17 18 22 22 21 20 19 18 18 16 16 19 23 24 25
2 3 3 3 7 10 12 13 15 16 17 17 18 17 16 17 17 17 16 16 18 19 21 21 24 21 19 19 20 19 18 21 22 20 18 15 15 12 12 15 17 20 22
2 4 4 6 7 10 12 13 15 15 15 16 17 17 18 16 16 15 17 16 16 18 18 18 18 17 17 19 19 20 23 23 24 25 24 24 21 20 17 16 18 18 19
7 10 12 12 12 12 12 12 12 12 13 15 17 19 20 22 19 18 17 17 17 18 18 20 19 17 18 22 22 18 22 24 26 28 28 27 27 25 22 21 20 20 19
13 11 10 10 10 12 13 11 10 10 13 16 18 19 20 21 19 18 17 19 20 21 23 23 22 20 20 20 21 21 21 22 24 25 27 26 28 26 25 22 21 17 21
8 9 11 14 14 16 18 17 13 12 13 11 13 16 18 19 19 19 21 22 24 25 27 26 25 23 23 23 23 22 23 23 23 22 23 22 19 18 21 21 21 19 22
7 9 13 14 15 17 19 21 23 20 18 12 12 14 19 21 23 25 28 28 27 27 27 27 28 28 27 25 24 23 23 23 23 23 23 23 21 20 20 22 20 21 22
9 11 14 16 17 18 17 19 20 21 23 23 16 16 18 22 25 28 32 34 30 28 29 29 29 29 28 27 26 25 24 23 23 24 23 23 23 22 21 21 21 22 22
11 12 15 16 17 18 20 19 18 20 21 21 22 21 24 26 27 31 31 28 30 28 25 26 26 26 26 25 26 26 26 24 23 23 24 23 21 20 21 21 21 22 22
11 12 15 18 18 19 20 21 20 20 21 21 20 20 24 31 35 36 30 27 25 26 28 26 28 25 24 25 27 28 28 25 23 23 24 24 21 19 20 20 21 23 24
13 14 16 19 20 18 17 19 19 20 22 24 27 29 29 33 37 37 27 25 26 26 26 28 26 22 23 23 23 23 25 24 23 24 24 23 22 24 23 24 23 24 24
16 17 20 23 22 22 21 21 23 25 26 29 32 34 32 34 34 31 26 25 27 27 27 26 24 25 22 24 25 21 20 20 22 24 22 22 21 22 23 21 22 24 25
18 20 22 23 22 22 22 24 26 26 27 29 32 35 32 32 34 26 26 26 29 31 28 24 21 22 24 27 28 27 28 25 23 21 21 19 20 21 20 21 20 21 22
23 22 21 23 21 21 21 21 23 24 26 28 31 30 31 29 24 24 24 23 26 27 24 21 21 21 20 20 20 25 26 26 27 26 26 27 27 23 25 24 25 24 21
28 26 21 20 20 21 20 21 23 21 22 25 25 29 28 23 21 21 22 22 22 21 19 15 13 13 13 15 16 18 19 20 23 24 25 28 30 28 28 27 28 30 29
20 18 18 18 21 18 18 20 17 17 20 21 24 24 24 23 20 19 19 19 19 19 17 16 16 15 15 15 16 16 18 19 18 17 18 21 23 24 25 27 29 30 30
Wind_Direction
237 240 240 240 240 239 241 245 249 251 261 274 262 261 257 261 264 267 267 271 274 279 280 278 282 287 310 328 311 301 293 289 290 298 304 305 309 299 298 295 295 298 292
242 250 250 252 248 244 241 249 256 259 259 267 264 267 267 269 266 264 273 276 279 292 301 287 270 286 296 286 294 289 289 285 285 286 291 301 303 300 288 284 284 289 287
247 253 257 255 248 239 233 234 241 246 249 258 267 267 266 267 272 251 264 275 282 281 284 275 275 281 304 234 252 285 290 284 282 279 284 287 293 295 288 283 280 279 278
241 233 222 240 228 229 222 220 242 259 267 262 267 272 273 265 264 262 274 286 280 274 267 269 278 288 280 227 250 281 284 284 281 282 283 283 285 288 281 280 281 280 273
198 168 112 81 64 114 80 36 284 289 284 280 276 280 282 277 278 278 276 274 272 268 268 268 264 257 235 245 264 276 281 278 273 271 276 279 279 283 284 288 284 284 266
157 153 129 72 6 19 291 294 290 288 297 271 272 277 280 275 273 276 275 276 277 274 270 272 269 260 257 266 270 273 274 274 275 277 277 278 280 285 290 286 280 275 260
140 148 246 288 356 243 210 203 242 280 282 278 271 270 275 273 273 277 282 283 282 280 277 274 271 271 269 267 268 267 268 270 272 276 277 278 282 282 286 279 281 269 274
102 95 104 106 128 209 249 240 260 265 265 269 273 272 272 271 274 278 281 284 283 281 282 281 278 277 276 273 267 266 267 268 270 271 274 279 278 274 272 273 278 267 261
129 109 97 90 78 142 208 228 245 257 263 271 277 276 279 286 289 287 284 279 278 278 277 279 285 285 280 277 275 274 269 263 263 271 279 285 286 276 265 269 265 256 254
133 118 71 57 25 258 255 256 261 267 273 278 282 288 293 293 291 292 288 281 274 273 272 278 282 285 288 287 276 267 266 265 268 275 284 289 284 275 258 259 261 262 258
129 63 59 29 299 288 289 288 285 285 291 291 291 293 293 293 293 289 287 281 279 281 282 281 278 279 287 292 294 283 273 271 274 280 289 307 308 269 258 262 269 259 257
51 40 18 314 293 291 293 293 291 289 288 288 291 293 295 295 297 302 301 292 290 289 289 288 282 280 285 287 286 286 286 280 275 277 278 291 312 317 275 262 262 262 263
344 320 305 304 290 284 284 285 285 284 286 287 288 290 293 295 298 303 304 292 285 286 293 301 306 293 285 281 279 273 270 269 274 275 278 282 291 301 305 299 280 260 262
307 305 304 299 296 293 291 292 291 294 298 303 309 308 305 305 308 304 294 292 289 291 300 295 297 302 290 281 276 275 272 275 277 277 275 273 284 288 294 298 302 264 251
309 313 321 329 331 329 322 318 314 313 312 318 323 323 322 321 321 317 310 305 300 300 300 302 303 298 290 285 278 271 268 272 277 283 282 282 279 281 286 289 293 270 259
338 357 357 355 353 345 341 339 339 318 305 313 324 323 329 331 330 330 325 314 306 301 302 304 303 299 297 297 293 287 280 275 275 282 278 277 281 283 283 282 282 270 252
360 1 1 1 359 358 356 352 342 336 340 337 326 328 325 323 324 324 319 314 309 306 305 302 301 301 301 299 297 295 294 287 282 278 279 276 279 280 285 279 268 273 259
358 1 3 3 0 359 353 351 347 346 342 339 333 323 317 315 317 317 315 315 312 307 302 299 298 299 299 297 296 295 294 294 287 279 274 273 274 276 274 271 264 263 263
6 357 355 351 350 347 345 340 341 337 336 332 330 326 322 321 318 317 316 313 312 311 310 310 306 305 307 304 302 299 298 293 288 287 280 275 277 273 263 265 265 263 260
354 350 347 344 341 340 342 339 333 327 328 329 333 335 329 323 325 329 323 319 319 310 309 303 301 301 303 302 306 304 295 288 288 288 288 281 273 270 267 262 263 262 260
331 332 331 331 331 326 327 330 337 333 331 329 325 324 321 317 321 323 319 319 314 312 308 305 301 295 292 300 306 304 302 293 284 285 287 280 273 262 263 261 264 262 262
314 316 319 318 318 318 311 312 318 321 322 322 319 320 316 315 317 317 316 311 313 313 306 303 296 292 290 285 286 291 301 295 291 288 281 277 272 263 261 258 264 257 258
301 305 307 314 308 309 306 307 309 310 307 309 313 314 313 312 315 314 313 311 315 318 312 306 298 288 284 286 282 291 287 284 278 278 275 269 262 261 257 255 254 257 258
292 292 299 305 302 304 300 304 306 305 305 310 315 318 317 315 312 311 313 313 320 323 319 309 301 299 300 301 290 285 287 280 278 277 272 268 270 259 260 256 256 257 259
290 280 277 286 294 303 301 305 309 312 318 321 322 324 323 320 312 313 313 318 321 328 331 328 329 333 331 329 325 321 313 300 285 278 274 268 265 264 259 258 259 260 260
295 286 280 283 293 293 300 312 314 318 325 324 327 331 333 332 321 314 315 318 326 331 329 326 325 325 323 325 326 327 321 313 302 288 277 274 273 270 265 260 257 258 257